Watford City, ND

10:34 PM CDT on May 28, 2017 (GMT -0500)
Watford City

Weather History for KS25 - January, 2014

Change the Weather History Date:

Wednesday, January 1, 2014

  Actual Average (KISN) Record (KISN)
Temperature  
Mean Temperature 0 °F -  
Max Temperature 3 °F 19 °F 48 °F (1998)
Min Temperature -2 °F -1 °F -33 °F (1982)
Degree Days  
Heating Degree Days 64    
Moisture  
Dew Point -4 °F    
Average Humidity 83    
Maximum Humidity 92    
Minimum Humidity 72    
Precipitation  
Precipitation 0.22 in - - ()
Sea Level Pressure  
Sea Level Pressure 30.23 in    
Wind  
Wind Speed 5 mph (ENE)    
Max Wind Speed 9 mph    
Max Gust Speed 21 mph    
Visibility 8 miles    
Events Snow    
Averages and records for this station are not official NWS values.
T = Trace of Precipitation, MM = Missing Value Source: NWS Daily Summary

Daily Weather History Graph

Daily Weather History Graph

Search for Another Location

Airport or City:

Trip Planner

Search our weather history database for the weather conditions in past years. The results will help you decide how hot, cold, wet, or windy it might be!

Date:

Astronomy

Jan. 01, 2014 Rise Set
Actual Time 8:42 AM CST 5:11 PM CST
Civil Twilight 8:06 AM CST 5:47 PM CST
Nautical Twilight 7:26 AM CST 6:26 PM CST
Astronomical Twilight 6:49 AM CST 7:04 PM CST
Moon 8:29 AM CST (1/1) 6:05 PM CST (1/1)
Length of Visible Light 9h 41m
Length of Day
8h 29m
New Moon, 0% of the Moon is Illuminated
Jan 1
New Moon
Jan 7
First Quarter
Jan 15
Full
Jan 23
Last Quarter
Jan 30
New

Hourly Weather History & Observations

Time (CST) Temp. Windchill Dew Point Humidity Pressure Visibility Wind Dir Wind Speed Gust Speed Precip Events Conditions
12:15 AM -2.2 °F -18.0 °F -7.6 °F 78% 30.12 in 10.0 mi ESE 9.2 mph 20.7 mph N/A   Overcast
12:35 AM -2.2 °F -15.6 °F -7.6 °F 78% 30.12 in 10.0 mi SE 6.9 mph - N/A   Overcast
12:55 AM -2.2 °F -16.8 °F -7.6 °F 78% 30.11 in 10.0 mi ESE 8.1 mph - N/A   Overcast
1:15 AM -2.2 °F -16.8 °F -7.6 °F 78% 30.10 in 10.0 mi ESE 8.1 mph - N/A   Overcast
1:35 AM -0.4 °F -12.0 °F -7.6 °F 72% 30.11 in 10.0 mi East 5.8 mph - N/A Snow Light Snow
1:55 AM -0.4 °F -13.4 °F -5.8 °F 78% 30.11 in 10.0 mi ESE 6.9 mph - N/A Snow Light Snow
2:15 AM -0.4 °F -14.7 °F -5.8 °F 78% 30.11 in 10.0 mi ESE 8.1 mph - N/A   Overcast
2:35 AM -0.4 °F -15.7 °F -5.8 °F 78% 30.12 in 10.0 mi ESE 9.2 mph - N/A   Overcast
2:55 AM -0.4 °F -10.4 °F -5.8 °F 78% 30.13 in 5.0 mi SE 4.6 mph - 0.01 in Snow Light Snow
3:15 AM -0.4 °F -12.0 °F -5.8 °F 78% 30.13 in 5.0 mi ESE 5.8 mph - 0.02 in Snow Light Snow
3:35 AM -0.4 °F -12.0 °F -4.0 °F 85% 30.13 in 8.0 mi SE 5.8 mph - 0.02 in Snow Light Snow
3:55 AM -0.4 °F -8.3 °F -4.0 °F 85% 30.14 in 7.0 mi ESE 3.5 mph - 0.03 in Snow Light Snow
4:15 AM -0.4 °F -10.4 °F -4.0 °F 85% 30.14 in 5.0 mi SE 4.6 mph - N/A Snow Light Snow
4:35 AM -0.4 °F -10.4 °F -4.0 °F 85% 30.14 in 3.0 mi East 4.6 mph - 0.02 in Snow Light Snow
4:55 AM -0.4 °F -10.4 °F -4.0 °F 85% 30.14 in 5.0 mi East 4.6 mph - 0.03 in Snow Light Snow
5:15 AM -0.4 °F -10.4 °F -4.0 °F 85% 30.14 in 8.0 mi ESE 4.6 mph - N/A Snow Light Snow
5:35 AM -0.4 °F - -4.0 °F 85% 30.15 in 10.0 mi Calm Calm - N/A   Overcast
5:55 AM -0.4 °F - -4.0 °F 85% 30.15 in 10.0 mi Calm Calm - N/A   Overcast
6:15 AM -0.4 °F - -4.0 °F 85% 30.16 in 10.0 mi Calm Calm - N/A   Overcast
6:35 AM -0.4 °F - -4.0 °F 85% 30.17 in 9.0 mi Calm Calm - N/A Snow Light Snow
6:55 AM -0.4 °F - -4.0 °F 85% 30.17 in 10.0 mi Calm Calm - N/A Snow Light Snow
7:15 AM -0.4 °F - -4.0 °F 85% 30.18 in 10.0 mi Calm Calm - N/A Snow Light Snow
7:35 AM -0.4 °F -8.3 °F -4.0 °F 85% 30.20 in 10.0 mi NNW 3.5 mph - N/A   Overcast
7:55 AM -0.4 °F -8.3 °F -4.0 °F 85% 30.20 in 10.0 mi North 3.5 mph - N/A   Overcast
8:15 AM -0.4 °F - -4.0 °F 85% 30.21 in 10.0 mi Calm Calm - N/A   Overcast
8:35 AM -0.4 °F - -4.0 °F 85% 30.22 in 10.0 mi Calm Calm - N/A   Overcast
8:55 AM -0.4 °F -8.3 °F -2.2 °F 92% 30.24 in 10.0 mi NNW 3.5 mph - N/A   Overcast
9:15 AM 1.4 °F -9.9 °F -2.2 °F 85% 30.25 in 10.0 mi NNW 5.8 mph - N/A Snow Light Snow
9:35 AM 1.4 °F -9.9 °F -2.2 °F 85% 30.27 in 10.0 mi NNW 5.8 mph - N/A Snow Light Snow
9:55 AM 1.4 °F -12.5 °F -2.2 °F 85% 30.28 in 5.0 mi NNW 8.1 mph - N/A Snow Light Snow
10:15 AM 1.4 °F -11.3 °F -2.2 °F 85% 30.29 in 4.0 mi NW 6.9 mph - N/A Snow Light Snow
10:35 AM -0.4 °F -10.4 °F -4.0 °F 85% 30.29 in 8.0 mi NW 4.6 mph - N/A   Overcast
10:55 AM 1.4 °F -12.5 °F -4.0 °F 78% 30.30 in 10.0 mi NW 8.1 mph - N/A   Overcast
11:15 AM 1.4 °F -12.5 °F -4.0 °F 78% 30.30 in 9.0 mi NW 8.1 mph - N/A   Overcast
11:35 AM 1.4 °F -11.3 °F -4.0 °F 78% 30.31 in 7.0 mi NW 6.9 mph - N/A   Overcast
11:55 AM 1.4 °F -9.9 °F -4.0 °F 78% 30.29 in 10.0 mi NNW 5.8 mph - N/A   Scattered Clouds
12:15 PM 1.4 °F -11.3 °F -4.0 °F 78% 30.30 in 10.0 mi NW 6.9 mph - N/A   Mostly Cloudy
12:35 PM 1.4 °F -11.3 °F -4.0 °F 78% 30.29 in 10.0 mi NNW 6.9 mph - N/A   Overcast
12:55 PM 1.4 °F -9.9 °F -4.0 °F 78% 30.29 in 10.0 mi NW 5.8 mph - N/A   Mostly Cloudy
1:15 PM 1.4 °F -11.3 °F -4.0 °F 78% 30.29 in 10.0 mi NW 6.9 mph - N/A   Mostly Cloudy
1:35 PM 1.4 °F -12.5 °F -4.0 °F 78% 30.29 in 10.0 mi NW 8.1 mph - N/A   Overcast
1:55 PM 3.2 °F -11.3 °F -2.2 °F 78% 30.30 in 10.0 mi NW 9.2 mph - N/A   Overcast
2:15 PM 3.2 °F -10.3 °F -2.2 °F 78% 30.29 in 10.0 mi NNW 8.1 mph - N/A   Overcast
2:35 PM 1.4 °F -9.9 °F -2.2 °F 85% 30.29 in 10.0 mi North 5.8 mph - N/A Snow Light Snow
2:55 PM 1.4 °F -9.9 °F -4.0 °F 78% 30.29 in 10.0 mi North 5.8 mph - N/A   Overcast
3:15 PM 1.4 °F -8.3 °F -4.0 °F 78% 30.29 in 10.0 mi North 4.6 mph - N/A   Mostly Cloudy
3:35 PM 1.4 °F -9.9 °F -4.0 °F 78% 30.29 in 10.0 mi NNE 5.8 mph - N/A   Partly Cloudy
3:55 PM 1.4 °F -6.2 °F -4.0 °F 78% 30.29 in 10.0 mi NE 3.5 mph - N/A   Scattered Clouds
4:15 PM -0.4 °F -8.3 °F -4.0 °F 85% 30.31 in 10.0 mi NE 3.5 mph - N/A Snow Light Snow
4:35 PM -0.4 °F - -4.0 °F 85% 30.30 in 10.0 mi Calm Calm - N/A   Mostly Cloudy
4:55 PM -0.4 °F -8.3 °F -4.0 °F 85% 30.30 in 10.0 mi NE 3.5 mph - N/A   Overcast
5:15 PM -0.4 °F - -4.0 °F 85% 30.31 in 4.0 mi Calm Calm - N/A Snow Light Snow
5:35 PM -0.4 °F - -4.0 °F 85% 30.30 in 3.0 mi Calm Calm - 0.02 in Snow Light Snow
5:55 PM -0.4 °F - -4.0 °F 85% 30.30 in 3.0 mi Calm Calm - 0.05 in Snow Light Snow
6:15 PM -0.4 °F - -4.0 °F 85% 30.30 in 9.0 mi Calm Calm - N/A Snow Light Snow
6:35 PM -0.4 °F -8.3 °F -4.0 °F 85% 30.29 in 3.0 mi East 3.5 mph - 0.01 in Snow Light Snow
6:55 PM -0.4 °F -8.3 °F -4.0 °F 85% 30.29 in 5.0 mi East 3.5 mph - 0.02 in Snow Light Snow
7:15 PM -0.4 °F - -4.0 °F 85% 30.29 in 4.0 mi Calm Calm - N/A Snow Light Snow
7:35 PM -0.4 °F -8.3 °F -4.0 °F 85% 30.29 in 5.0 mi East 3.5 mph - 0.01 in Snow Light Snow
7:55 PM -0.4 °F -10.4 °F -4.0 °F 85% 30.29 in 5.0 mi ESE 4.6 mph - 0.03 in Snow Light Snow
8:15 PM -0.4 °F -12.0 °F -4.0 °F 85% 30.28 in 5.0 mi ESE 5.8 mph - N/A Snow Light Snow
8:35 PM -0.4 °F -10.4 °F -2.2 °F 92% 30.28 in 2.0 mi ESE 4.6 mph - 0.03 in Snow Light Snow
8:55 PM -0.4 °F -10.4 °F -4.0 °F 85% 30.27 in 3.0 mi North 4.6 mph - 0.05 in Snow Light Snow
9:15 PM -0.4 °F -8.3 °F -2.2 °F 92% 30.27 in 7.0 mi East 3.5 mph - N/A Snow Light Snow
9:35 PM -0.4 °F -10.4 °F -2.2 °F 92% 30.27 in 9.0 mi ESE 4.6 mph - N/A Snow Light Snow
9:55 PM -0.4 °F -8.3 °F -2.2 °F 92% 30.27 in 5.0 mi East 3.5 mph - N/A Snow Light Snow
10:15 PM -0.4 °F -8.3 °F -2.2 °F 92% 30.27 in 10.0 mi East 3.5 mph - N/A Snow Light Snow
10:35 PM -0.4 °F -8.3 °F -2.2 °F 92% 30.27 in 10.0 mi East 3.5 mph - N/A   Mostly Cloudy
10:55 PM -0.4 °F -8.3 °F -2.2 °F 92% 30.26 in 10.0 mi East 3.5 mph - N/A   Mostly Cloudy
11:15 PM -0.4 °F -8.3 °F -2.2 °F 92% 30.26 in 10.0 mi East 3.5 mph - N/A   Overcast
11:35 PM -0.4 °F - -2.2 °F 92% 30.26 in 10.0 mi Calm Calm - N/A   Overcast
11:55 PM 1.4 °F -6.2 °F -2.2 °F 85% 30.27 in 10.0 mi East 3.5 mph - N/A   Overcast